GW2745 Weather Reports


time (UTC)temp
F
wind
direction
speed
knots
gust
knots
rain 1hr
in
rain 24hr
in
rain mn
in
humidity
%
barometer
mb
20260502161906 80 100 12.2 15.6 0.00 0.00 0.00 29 1015.1
20260502161403 80 86 9.6 14.8 0.00 0.00 0.00 29 1015.4
20260502160900 80 75 11.3 18.2 0.00 0.00 0.00 30 1015.2
20260502160359 80 99 9.6 16.5 0.00 0.00 0.00 31 1015.5
20260502152334 77 72 12.2 20.0 0.00 0.00 0.00 32 1015.2
20260502151831 77 84 13.9 17.4 0.00 0.00 0.00 32 1015.1
20260502151328 77 76 10.4 13.9 0.00 0.00 0.00 31 1014.8
20260502150825 76 77 12.2 15.6 0.00 0.00 0.00 32 1014.9
20260502150321 76 89 11.3 18.2 0.00 0.00 0.00 31 1014.9
20260502130710 70 72 9.6 10.4 0.00 0.00 0.00 25 1013.6
20260502130208 70 82 8.7 10.4 0.00 0.00 0.00 25 1013.5
20260502123653 69 84 7.0 8.7 0.00 0.00 0.00 24 1013.2
20260502123150 68 72 7.0 8.7 0.00 0.00 0.00 25 1013.0
20260502122646 65 86 5.2 6.1 0.00 0.00 0.00 27 1012.8
20260502122143 65 145 1.7 3.5 0.00 0.00 0.00 26 1013.0
20260502121641 67 120 2.6 5.2 0.00 0.00 0.00 25 1012.9
20260502121139 67 92 4.3 5.2 0.00 0.00 0.00 25 1012.8
20260502120635 68 98 1.7 4.3 0.00 0.00 0.00 25 1012.9
20260502120132 68 113 3.5 4.3 0.00 0.00 0.00 24 1012.7
20260502115630 68 33 2.6 3.5 0.00 0.00 0.00 24 1012.7
20260502115125 68 28 2.6 4.3 0.00 0.00 0.00 24 1012.5
20260502114621 68 116 2.6 2.6 0.00 0.00 0.00 25 1012.7
20260502114119 69 189 3.5 3.5 0.00 0.00 0.00 24 1012.5
20260502113616 70 93 4.3 5.2 0.00 0.00 0.00 23 1012.8
20260502113115 70 86 7.0 7.8 0.00 0.00 0.00 23 1012.5
20260502112612 71 80 7.0 8.7 0.00 0.00 0.00 23 1012.7
20260502112110 71 75 7.8 11.3 0.00 0.00 0.00 23 1012.8
20260502111607 70 75 7.8 8.7 0.00 0.00 0.00 23 1012.5
20260502111104 70 92 4.3 7.0 0.00 0.00 0.00 23 1012.5
20260502110602 68 91 7.0 9.6 0.00 0.00 0.00 25 1012.5
20260502110059 69 48 0.9 1.7 0.00 0.00 0.00 24 1012.7
20260502105556 70 122 0.0 1.7 0.00 0.00 0.00 23 1012.5
20260502105054 71 56 0.9 2.6 0.00 0.00 0.00 23 1012.4
20260502104550 71 96 0.9 1.7 0.00 0.00 0.00 23 1012.7
20260502104048 71 78 0.9 1.7 0.00 0.00 0.00 23 1012.4
20260502103546 71 96 1.7 1.7 0.00 0.00 0.00 22 1012.5
20260502103044 71 60 2.6 3.5 0.00 0.00 0.00 22 1012.4
20260502102540 71 68 5.2 7.0 0.00 0.00 0.00 23 1012.5
20260502102037 71 48 8.7 12.2 0.00 0.00 0.00 23 1012.5
20260502101535 73 57 4.3 4.3 0.00 0.00 0.00 20 1012.5
20260502101033 74 65 5.2 5.2 0.00 0.00 0.00 21 1012.1
20260502100531 73 69 3.5 3.5 0.00 0.00 0.00 21 1012.4
20260502091506 72 194 0.9 1.7 0.00 0.00 0.00 21 1012.1
20260502091003 71 145 1.7 2.6 0.00 0.00 0.00 21 1012.0
20260502090500 69 99 4.3 4.3 0.00 0.00 0.00 21 1012.0
20260502071354 67 136 3.5 3.5 0.00 0.00 0.00 20 1011.9
20260502070853 66 98 2.6 2.6 0.00 0.00 0.00 21 1012.1
20260502070350 69 148 2.6 3.5 0.00 0.00 0.00 20 1012.1
20260502065849 70 188 4.3 4.3 0.00 0.00 0.00 19 1012.1
20260502065346 71 210 2.6 2.6 0.00 0.00 0.00 20 1011.8
20260502064844 71 262 1.7 1.7 0.00 0.00 0.00 20 1011.9
20260502064342 70 259 0.9 1.7 0.00 0.00 0.00 20 1011.8
20260502063839 71 306 1.7 1.7 0.00 0.00 0.00 20 1011.8
20260502063337 71 142 0.9 1.7 0.00 0.00 0.00 20 1011.9
20260502062834 71 132 2.6 2.6 0.00 0.00 0.00 20 1011.9
20260502062331 70 141 2.6 2.6 0.00 0.00 0.00 21 1011.9
20260502061830 68 120 1.7 1.7 0.00 0.00 0.00 21 1011.9
20260502061327 67 28 0.9 0.9 0.00 0.00 0.00 22 1011.9
20260502060823 68 32 0.0 0.0 0.00 0.00 0.00 21 1011.8
20260502060318 69 326 0.0 0.0 0.00 0.00 0.00 21 1011.7
20260502055816 69 326 0.0 0.0 0.00 0.00 0.00 20 1011.5
20260502055314 69 312 0.9 0.9 0.00 0.00 0.00 20 1011.9
20260502054813 70 241 0.9 1.7 0.00 0.00 0.00 20 1011.8
20260502054310 71 225 1.7 1.7 0.00 0.00 0.00 19 1011.8
20260502053808 71 216 1.7 2.6 0.00 0.00 0.00 19 1011.7
20260502053304 71 230 1.7 2.6 0.00 0.00 0.00 19 1011.9
20260502052802 72 229 2.6 3.5 0.00 0.00 0.00 18 1011.6
20260502052300 72 272 4.3 4.3 0.00 0.00 0.00 18 1011.7
20260502051758 72 258 3.5 4.3 0.00 0.00 0.00 18 1011.7
20260502051256 74 204 2.6 3.5 0.00 0.00 0.00 18 1011.4
20260502050752 75 167 4.3 5.2 0.00 0.00 0.00 17 1011.7
20260502050248 76 163 4.3 4.3 0.00 0.00 0.00 16 1011.4
20260502045746 76 160 4.3 5.2 0.00 0.00 0.00 16 1011.5
20260502045242 77 158 4.3 4.3 0.00 0.00 0.00 15 1011.2
20260502044739 77 156 3.5 3.5 0.00 0.00 0.00 16 1011.1
20260502044235 77 158 3.5 4.3 0.00 0.00 0.00 17 1011.4
20260502043733 76 159 3.5 4.3 0.00 0.00 0.00 16 1011.4
20260502043230 75 170 3.5 3.5 0.00 0.00 0.00 16 1011.3
20260502042729 75 163 3.5 3.5 0.00 0.00 0.00 16 1011.4
20260502042227 75 165 3.5 3.5 0.00 0.00 0.00 16 1011.3
20260502041725 75 167 2.6 3.5 0.00 0.00 0.00 16 1011.2
20260502041222 76 195 3.5 3.5 0.00 0.00 0.00 15 1011.1
20260502040719 76 197 2.6 3.5 0.00 0.00 0.00 15 1011.1
20260502040216 76 199 3.5 4.3 0.00 0.00 0.00 15 1011.0
20260502035712 76 199 3.5 4.3 0.00 0.00 0.00 15 1011.0
20260502035209 76 200 3.5 4.3 0.00 0.00 0.00 15 1011.0
20260502034706 77 196 3.5 3.5 0.00 0.00 0.00 15 1010.9
20260502034204 78 199 3.5 3.5 0.00 0.00 0.00 15 1010.8
20260502033702 79 210 3.5 4.3 0.00 0.00 0.00 14 1011.0
20260502033200 80 216 6.1 6.1 0.00 0.00 0.00 14 1010.6
20260502032656 80 238 3.5 4.3 0.00 0.00 0.00 14 1010.7
20260502032152 81 228 3.5 4.3 0.00 0.00 0.00 14 1010.5
20260502031650 81 228 3.5 3.5 0.00 0.00 0.00 14 1010.5
20260502031147 82 234 2.6 3.5 0.00 0.00 0.00 14 1010.5
20260502030646 82 236 2.6 2.6 0.00 0.00 0.00 14 1010.4
20260502030144 82 222 1.7 1.7 0.00 0.00 0.00 15 1010.5
20260502025641 82 245 1.7 1.7 0.00 0.00 0.00 15 1010.3
20260502025139 82 260 1.7 1.7 0.00 0.00 0.00 15 1010.3
20260502024636 83 265 1.7 1.7 0.00 0.00 0.00 15 1010.2
20260502024134 83 256 2.6 2.6 0.00 0.00 0.00 15 1010.1
20260502023632 83 259 2.6 2.6 0.00 0.00 0.00 15 1010.2
20260502023129 83 264 2.6 3.5 0.00 0.00 0.00 15 1010.2
20260502022626 84 269 2.6 3.5 0.00 0.00 0.00 15 1010.4
20260502022123 85 287 2.6 2.6 0.00 0.00 0.00 15 1010.1
20260502021620 85 294 3.5 3.5 0.00 0.00 0.00 15 1009.9
20260502021117 85 300 3.5 3.5 0.00 0.00 0.00 15 1009.8
20260502020615 85 313 3.5 6.1 0.00 0.00 0.00 15 1009.8
20260502020111 86 302 4.3 7.0 0.00 0.00 0.00 15 1009.7
20260502015609 86 299 6.1 7.8 0.00 0.00 0.00 14 1009.8
20260502015105 87 328 5.2 7.0 0.00 0.00 0.00 14 1009.7
20260502014603 87 300 7.0 8.7 0.00 0.00 0.00 14 1009.7
20260502014059 87 303 6.1 9.6 0.00 0.00 0.00 14 1009.9
20260502013555 87 303 7.0 7.0 0.00 0.00 0.00 13 1009.5
20260502013051 87 291 4.3 7.8 0.00 0.00 0.00 13 1009.5
20260502012549 87 281 3.5 9.6 0.00 0.00 0.00 14 1009.5
20260502012047 87 322 4.3 4.3 0.00 0.00 0.00 14 1009.7
20260502011543 88 324 9.6 11.3 0.00 0.00 0.00 14 1009.5
20260502011039 88 308 10.4 12.2 0.00 0.00 0.00 13 1009.7
20260502010537 88 305 9.6 13.9 0.00 0.00 0.00 13 1009.6
20260502010033 88 276 9.6 10.4 0.00 0.00 0.00 14 1009.7
20260502005531 88 292 5.2 9.6 0.00 0.00 0.00 15 1009.7
20260502005029 88 275 9.6 11.3 0.00 0.00 0.00 14 1009.7
20260502004524 88 314 6.1 7.8 0.00 0.00 0.00 15 1009.7
20260502004021 88 267 5.2 8.7 0.00 0.00 0.00 15 1009.7
20260502003519 88 296 7.0 11.3 0.00 0.00 0.00 15 1009.7
20260502003015 88 314 10.4 15.6 0.00 0.00 0.00 15 1009.6
20260502002512 88 297 13.9 15.6 0.00 0.00 0.00 16 1009.5
20260502002009 88 252 7.0 9.6 0.00 0.00 0.00 16 1009.8
20260502001507 88 266 5.2 7.8 0.00 0.00 0.00 16 1009.7
20260502001004 88 272 5.2 7.8 0.00 0.00 0.00 17 1009.8
20260502000503 88 250 12.2 13.0 0.00 0.00 0.00 17 1009.8
20260501235958 88 318 6.1 7.8 0.00 0.00 0.00 17 1009.5
20260501235454 88 326 7.8 9.6 0.00 0.00 0.00 17 1009.6
20260501234949 89 291 10.4 14.8 0.00 0.00 0.00 17 1009.7
20260501234446 89 277 7.8 10.4 0.00 0.00 0.00 16 1009.8
20260501233945 88 237 7.8 9.6 0.00 0.00 0.00 17 1009.7
20260501233443 88 293 3.5 4.3 0.00 0.00 0.00 17 1009.8
20260501232938 87 296 6.1 13.9 0.00 0.00 0.00 18 1009.8
20260501232435 88 291 11.3 14.8 0.00 0.00 0.00 18 1009.7
20260501231932 88 248 5.2 9.6 0.00 0.00 0.00 18 1009.8
20260501231431 88 300 6.1 11.3 0.00 0.00 0.00 18 1009.9
20260501230929 89 308 10.4 14.8 0.00 0.00 0.00 18 1010.2
20260501230427 87 311 6.1 7.0 0.00 0.00 0.00 18 1010.3
20260501225924 87 327 6.1 13.0 0.00 0.00 0.00 18 1009.9
20260501225422 88 299 8.7 10.4 0.00 0.00 0.00 18 1010.1
20260501224917 87 351 8.7 11.3 0.00 0.00 0.00 17 1010.1
20260501224415 88 301 12.2 18.2 0.00 0.00 0.00 18 1010.2
20260501223912 87 307 7.8 13.0 0.00 0.00 0.00 18 1010.2
20260501223408 87 316 9.6 13.0 0.00 0.00 0.00 19 1010.1
20260501222904 88 304 8.7 9.6 0.00 0.00 0.00 19 1010.4
20260501222401 87 269 2.6 8.7 0.00 0.00 0.00 19 1010.5
20260501221857 87 344 11.3 13.9 0.00 0.00 0.00 19 1010.4
20260501221355 86 260 4.3 8.7 0.00 0.00 0.00 19 1010.5
20260501220853 87 280 11.3 13.0 0.00 0.00 0.00 18 1010.6
20260501220350 86 254 4.3 11.3 0.00 0.00 0.00 19 1010.6
20260501215846 87 287 8.7 9.6 0.00 0.00 0.00 18 1010.7
20260501215343 86 223 5.2 12.2 0.00 0.00 0.00 19 1010.9
20260501214838 89 277 5.2 10.4 0.00 0.00 0.00 18 1010.8
20260501214334 87 321 5.2 11.3 0.00 0.00 0.00 18 1010.9
20260501213830 86 302 4.3 5.2 0.00 0.00 0.00 19 1011.0
20260501213327 87 325 7.0 12.2 0.00 0.00 0.00 19 1011.2
20260501212822 86 276 4.3 7.0 0.00 0.00 0.00 19 1011.2
20260501212319 86 231 5.2 6.1 0.00 0.00 0.00 19 1011.3
20260501211816 86 320 5.2 6.1 0.00 0.00 0.00 20 1011.3
20260501211313 85 274 12.2 13.0 0.00 0.00 0.00 20 1011.3
20260501210810 85 272 10.4 13.0 0.00 0.00 0.00 19 1011.3
20260501210307 85 266 7.0 13.0 0.00 0.00 0.00 20 1011.4
20260501205803 87 244 11.3 14.8 0.00 0.00 0.00 20 1011.5
20260501205300 86 236 7.8 8.7 0.00 0.00 0.00 20 1011.5
20260501204757 85 311 3.5 7.0 0.00 0.00 0.00 21 1011.8
20260501204254 85 265 5.2 11.3 0.00 0.00 0.00 21 1011.7
20260501203750 86 259 10.4 10.4 0.00 0.00 0.00 20 1011.7
20260501203248 85 309 5.2 10.4 0.00 0.00 0.00 21 1011.7
20260501202745 84 285 8.7 9.6 0.00 0.00 0.00 22 1011.7
20260501202241 84 295 8.7 12.2 0.00 0.00 0.00 22 1011.9
20260501201738 84 317 6.1 9.6 0.00 0.00 0.00 22 1011.7
20260501201235 83 257 7.0 12.2 0.00 0.00 0.00 22 1011.8
20260501200732 84 279 6.1 7.8 0.00 0.00 0.00 21 1011.7
20260501200229 84 279 6.1 9.6 0.00 0.00 0.00 20 1012.0
20260501195726 84 257 8.7 12.2 0.00 0.00 0.00 21 1011.9
20260501195222 83 311 9.6 11.3 0.00 0.00 0.00 22 1012.0
20260501194718 83 256 5.2 9.6 0.00 0.00 0.00 23 1012.2
20260501194214 82 338 5.2 7.0 0.00 0.00 0.00 24 1012.4
20260501193711 83 280 5.2 8.7 0.00 0.00 0.00 24 1012.4
20260501193209 82 273 5.2 13.0 0.00 0.00 0.00 23 1012.3
20260501192706 83 221 5.2 7.0 0.00 0.00 0.00 23 1012.4
20260501192204 83 271 5.2 9.6 0.00 0.00 0.00 23 1012.3
20260501191701 82 338 3.5 9.6 0.00 0.00 0.00 24 1012.8
20260501191158 82 286 9.6 12.2 0.00 0.00 0.00 24 1012.9
20260501190654 82 265 9.6 12.2 0.00 0.00 0.00 23 1012.9
20260501190149 81 124 2.6 3.5 0.00 0.00 0.00 24 1012.9
20260501185646 81 317 1.7 7.0 0.00 0.00 0.00 24 1013.0
20260501185141 81 202 7.8 9.6 0.00 0.00 0.00 24 1012.9
20260501184638 81 180 3.5 3.5 0.00 0.00 0.00 25 1013.1
20260501184133 81 216 6.1 7.8 0.00 0.00 0.00 25 1013.2
20260501183630 80 272 6.1 9.6 0.00 0.00 0.00 25 1013.2
20260501183126 80 294 8.7 9.6 0.00 0.00 0.00 26 1013.3
20260501182623 80 294 5.2 10.4 0.00 0.00 0.00 27 1013.3
20260501182120 79 356 2.6 7.8 0.00 0.00 0.00 27 1013.4
20260501181617 80 284 6.1 9.6 0.00 0.00 0.00 27 1013.6
20260501181114 80 298 11.3 12.2 0.00 0.00 0.00 26 1013.6
20260501180612 80 279 7.0 8.7 0.00 0.00 0.00 26 1013.6
20260501180108 80 340 4.3 7.0 0.00 0.00 0.00 26 1013.8
20260501175605 78 314 1.7 5.2 0.00 0.00 0.00 27 1013.8
20260501175102 79 12 6.1 6.1 0.00 0.00 0.00 26 1013.8
20260501174558 79 351 6.1 9.6 0.00 0.00 0.00 27 1013.8
20260501174056 79 331 7.8 10.4 0.00 0.00 0.00 27 1013.6
20260501173553 78 13 3.5 3.5 0.00 0.00 0.00 28 1013.7
20260501173049 79 337 4.3 4.3 0.00 0.00 0.00 28 1013.8
20260501172545 78 267 3.5 6.1 0.00 0.00 0.00 29 1014.0
20260501172041 78 300 9.6 9.6 0.00 0.00 0.00 28 1013.9
20260501171537 79 315 8.7 9.6 0.00 0.00 0.00 27 1014.0
20260501171034 78 232 2.6 3.5 0.00 0.00 0.00 29 1013.8
20260501170531 78 253 4.3 5.2 0.00 0.00 0.00 29 1014.0
20260501170028 78 308 8.7 11.3 0.00 0.00 0.00 29 1014.1
20260501165526 77 292 7.0 9.6 0.00 0.00 0.00 30 1014.0
20260501165023 77 327 6.1 8.7 0.00 0.00 0.00 30 1013.9
20260501164521 77 335 6.1 7.8 0.00 0.00 0.00 30 1014.0
20260501164017 77 352 3.5 7.8 0.00 0.00 0.00 30 1014.2
20260501163514 77 305 6.1 8.7 0.00 0.00 0.00 30 1014.0
20260501163011 76 224 5.2 5.2 0.00 0.00 0.00 31 1014.0
20260501162507 76 252 7.0 7.8 0.00 0.00 0.00 31 1014.0